Change the Weather History Date:

Wednesday, January 8, 2014

  Actual Average Record
Temperature  
Mean Temperature -4 °F -  
Max Temperature 5 °F 20 °F 57 °F (2003)
Min Temperature -14 °F 0 °F -18 °F (1970)
Degree Days  
Heating Degree Days 70    
Moisture  
Dew Point -9 °F    
Average Humidity 79    
Maximum Humidity 85    
Minimum Humidity 66    
Precipitation  
Precipitation 0.00 in - - ()
Sea Level Pressure  
Sea Level Pressure 30.34 in    
Wind  
Wind Speed 3 mph (SSE)    
Max Wind Speed 12 mph    
Max Gust Speed -    
Visibility 10 miles    
Events      
Averages and records for this station are not official NWS values.
T = Trace of Precipitation, MM = Missing Value Source: NWS Daily Summary

Daily Weather History Graph

Daily Weather History Graph

Search for Another Location

Airport or City:

Trip Planner

Search our weather history database for the weather conditions in past years. The results will help you decide how hot, cold, wet, or windy it might be!

Date:

Astronomy

Jan. 08, 2014 Rise Set
Actual Time 7:54 AM CST 5:00 PM CST
Civil Twilight 7:21 AM CST 5:32 PM CST
Nautical Twilight 6:45 AM CST 6:08 PM CST
Astronomical Twilight 6:11 AM CST 6:43 PM CST
Moon 11:59 AM CST (1/8) 12:53 AM CST (1/8)
Length of Visible Light 10h 11m
Length of Day
9h 06m
First Quarter, 56% of the Moon is Illuminated
Jan 8
First Quarter
Jan 15
Full
Jan 23
Last Quarter
Jan 30
New
Feb 6
First Quarter

Hourly Weather History & Observations

Time (CST) Temp. Windchill Dew Point Humidity Pressure Visibility Wind Dir Wind Speed Gust Speed Precip Events Conditions
12:13 AM -7.6 °F -18.8 °F -11.2 °F 84% 30.23 in 10.0 mi West 4.6 mph - N/A   Clear
12:32 AM -9.4 °F -22.7 °F -13.0 °F 84% 30.23 in 10.0 mi West 5.8 mph - N/A   Clear
12:53 AM -9.4 °F -18.6 °F -13.0 °F 84% 30.23 in 10.0 mi West 3.5 mph - N/A   Clear
1:12 AM -9.4 °F -22.7 °F -13.0 °F 84% 30.24 in 10.0 mi West 5.8 mph - N/A   Clear
1:32 AM -9.4 °F -25.6 °F -13.0 °F 84% 30.24 in 10.0 mi WNW 8.1 mph - N/A   Clear
1:53 AM -9.4 °F -20.9 °F -13.0 °F 84% 30.24 in 10.0 mi NW 4.6 mph - N/A   Clear
2:12 AM -7.6 °F -16.5 °F -11.2 °F 84% 30.25 in 10.0 mi West 3.5 mph - N/A   Clear
2:32 AM -7.6 °F -18.8 °F -11.2 °F 84% 30.26 in 10.0 mi West 4.6 mph - N/A   Clear
2:53 AM -9.4 °F -20.9 °F -13.0 °F 84% 30.27 in 10.0 mi West 4.6 mph - N/A   Scattered Clouds
3:12 AM -9.4 °F - -14.8 °F 77% 30.27 in 10.0 mi Calm Calm - N/A   Unknown
3:32 AM -9.4 °F - -13.0 °F 84% 30.28 in 10.0 mi Calm Calm - N/A   Unknown
3:53 AM -7.6 °F - -11.2 °F 84% 30.28 in 10.0 mi Calm Calm - N/A   Overcast
4:12 AM -7.6 °F -16.5 °F -11.2 °F 84% 30.28 in 10.0 mi WNW 3.5 mph - N/A   Scattered Clouds
4:32 AM -7.6 °F -16.5 °F -11.2 °F 84% 30.28 in 10.0 mi WNW 3.5 mph - N/A   Clear
4:52 AM -9.4 °F - -13.0 °F 84% 30.28 in 10.0 mi Calm Calm - N/A   Clear
5:12 AM -9.4 °F - -13.0 °F 84% 30.29 in 10.0 mi Calm Calm - N/A   Clear
5:33 AM -9.4 °F - -14.8 °F 77% 30.29 in 10.0 mi Calm Calm - N/A   Clear
5:52 AM -9.4 °F - -13.0 °F 84% 30.30 in 10.0 mi Calm Calm - N/A   Unknown
6:13 AM -9.4 °F - -13.0 °F 84% 30.30 in 10.0 mi Calm Calm - N/A   Unknown
6:33 AM -11.2 °F - -16.6 °F 77% 30.30 in 10.0 mi Calm Calm - N/A   Clear
6:52 AM -11.2 °F - -16.6 °F 77% 30.31 in 10.0 mi Calm Calm - N/A   Clear
7:13 AM -14.8 °F - -18.4 °F 84% 30.32 in 10.0 mi Calm Calm - N/A   Clear
7:33 AM -13.0 °F - -16.6 °F 84% 30.32 in 10.0 mi Calm Calm - N/A   Clear
7:52 AM -11.2 °F - -16.6 °F 77% 30.33 in 10.0 mi Calm Calm - N/A   Clear
8:13 AM -11.2 °F - -16.6 °F 77% 30.33 in 10.0 mi Calm Calm - N/A   Clear
8:33 AM -11.2 °F - -16.6 °F 77% 30.35 in 10.0 mi Calm Calm - N/A   Clear
8:52 AM -11.2 °F - -16.6 °F 77% 30.36 in 10.0 mi Calm Calm - N/A   Clear
9:13 AM -13.0 °F - -16.6 °F 84% 30.37 in 10.0 mi Calm Calm - N/A   Clear
9:32 AM -9.4 °F - -14.8 °F 77% 30.37 in 10.0 mi Calm Calm - N/A   Clear
9:52 AM -7.6 °F - -11.2 °F 84% 30.38 in 10.0 mi Calm Calm - N/A   Clear
10:13 AM -4.0 °F - -11.2 °F 71% 30.39 in 10.0 mi Calm Calm - N/A   Clear
10:32 AM -5.8 °F - -11.2 °F 77% 30.40 in 10.0 mi Calm Calm - N/A   Clear
10:52 AM -4.0 °F - -9.4 °F 78% 30.41 in 7.0 mi Calm Calm - N/A   Clear
11:13 AM -0.4 °F - -7.6 °F 72% 30.41 in 0.5 mi Calm Calm - N/A   Haze
11:32 AM -2.2 °F - -7.6 °F 78% 30.40 in 0.5 mi Calm Calm - N/A   Mostly Cloudy
11:52 AM -0.4 °F -8.3 °F -7.6 °F 72% 30.40 in 0.2 mi North 3.5 mph - N/A   Haze
12:13 PM -0.4 °F -10.4 °F -7.6 °F 72% 30.39 in 10.0 mi North 4.6 mph - N/A   Scattered Clouds
12:32 PM 1.4 °F -6.2 °F -5.8 °F 72% 30.39 in 10.0 mi North 3.5 mph - N/A   Clear
12:52 PM 1.4 °F -6.2 °F -5.8 °F 72% 30.37 in 10.0 mi North 3.5 mph - N/A   Clear
1:13 PM 1.4 °F - -5.8 °F 72% 30.37 in 10.0 mi Calm Calm - N/A   Clear
1:32 PM 1.4 °F - -5.8 °F 72% 30.37 in 10.0 mi Calm Calm - N/A   Clear
1:52 PM 1.4 °F - -5.8 °F 72% 30.37 in 10.0 mi Calm Calm - N/A   Clear
2:13 PM 1.4 °F - -5.8 °F 72% 30.37 in 10.0 mi Calm Calm - N/A   Clear
2:32 PM 3.2 °F - -5.8 °F 66% 30.38 in 10.0 mi Calm Calm - N/A   Clear
2:53 PM 1.4 °F - -5.8 °F 72% 30.38 in 10.0 mi Calm Calm - N/A   Clear
3:13 PM 1.4 °F - -5.8 °F 72% 30.38 in 10.0 mi Calm Calm - N/A   Clear
3:32 PM 1.4 °F - -5.8 °F 72% 30.38 in 10.0 mi Calm Calm - N/A   Clear
3:53 PM 1.4 °F - -5.8 °F 72% 30.38 in 10.0 mi Calm Calm - N/A   Clear
4:12 PM 1.4 °F - -5.8 °F 72% 30.38 in 10.0 mi Calm Calm - N/A   Clear
4:32 PM 1.4 °F - -5.8 °F 72% 30.38 in 10.0 mi Calm Calm - N/A   Clear
4:53 PM -0.4 °F -10.4 °F -5.8 °F 78% 30.37 in 10.0 mi East 4.6 mph - N/A   Clear
5:12 PM -0.4 °F -8.3 °F -5.8 °F 78% 30.37 in 10.0 mi East 3.5 mph - N/A   Clear
5:32 PM -0.4 °F -10.4 °F -5.8 °F 78% 30.38 in 10.0 mi East 4.6 mph - N/A   Clear
5:53 PM -2.2 °F -12.5 °F -7.6 °F 78% 30.38 in 10.0 mi ESE 4.6 mph - N/A   Clear
6:12 PM -2.2 °F -12.5 °F -7.6 °F 78% 30.37 in 10.0 mi ESE 4.6 mph - N/A   Clear
6:32 PM -2.2 °F -10.4 °F -7.6 °F 78% 30.37 in 10.0 mi ESE 3.5 mph - N/A   Clear
6:53 PM -4.0 °F - -7.6 °F 85% 30.37 in 10.0 mi Calm Calm - N/A   Mostly Cloudy
7:12 PM -2.2 °F - -7.6 °F 78% 30.37 in 10.0 mi Calm Calm - N/A   Overcast
7:32 PM -2.2 °F -12.5 °F -5.8 °F 85% 30.37 in 10.0 mi ESE 4.6 mph - N/A   Overcast
7:53 PM -0.4 °F -13.4 °F -5.8 °F 78% 30.36 in 10.0 mi ESE 6.9 mph - N/A   Overcast
8:12 PM -0.4 °F -10.4 °F -5.8 °F 78% 30.36 in 10.0 mi ESE 4.6 mph - N/A   Overcast
8:32 PM 1.4 °F -11.3 °F -4.0 °F 78% 30.37 in 10.0 mi SSE 6.9 mph - N/A   Overcast
8:52 PM 1.4 °F -9.9 °F -4.0 °F 78% 30.36 in 10.0 mi SE 5.8 mph - N/A   Overcast
9:13 PM 1.4 °F -11.3 °F -2.2 °F 85% 30.36 in 10.0 mi SSE 6.9 mph - N/A   Overcast
9:32 PM 1.4 °F -11.3 °F -2.2 °F 85% 30.35 in 10.0 mi SE 6.9 mph - N/A   Overcast
9:52 PM 3.2 °F -11.3 °F -2.2 °F 78% 30.34 in 10.0 mi SE 9.2 mph - N/A   Overcast
10:13 PM 3.2 °F -11.3 °F -2.2 °F 78% 30.34 in 10.0 mi SE 9.2 mph - N/A   Overcast
10:33 PM 3.2 °F -12.2 °F -0.4 °F 85% 30.34 in 10.0 mi SSE 10.4 mph - N/A   Overcast
10:52 PM 3.2 °F -11.3 °F -0.4 °F 85% 30.33 in 10.0 mi SSE 9.2 mph - N/A   Overcast
11:13 PM 3.2 °F -11.3 °F -0.4 °F 85% 30.33 in 10.0 mi SSE 9.2 mph - N/A   Overcast
11:33 PM 5.0 °F -10.8 °F -0.4 °F 78% 30.32 in 10.0 mi SSE 11.5 mph - N/A   Overcast
11:52 PM 5.0 °F -10.0 °F -0.4 °F 78% 30.31 in 10.0 mi SSE 10.4 mph - N/A   Overcast